WX2P-13 Weather Reports


time (UTC)temp
F
wind
direction
speed
knots
gust
knots
rain 1hr
in
rain 24hr
in
rain mn
in
humidity
%
barometer
mb
20260510173416 87 264 2.6 8.7 0.00 0.00 0.00 75 1016.9
20260510172912 88 230 1.7 5.2 0.00 0.00 0.00 74 1016.9
20260510172409 88 304 1.7 4.3 0.00 0.00 0.00 73 1017.1
20260510171904 87 147 0.9 2.6 0.00 0.00 0.00 76 1017.1
20260510171402 88 7 3.5 7.0 0.00 0.00 0.00 74 1017.1
20260510170859 87 156 0.9 5.2 0.00 0.00 0.00 73 1017.1
20260510170355 88 247 2.6 6.1 0.00 0.00 0.00 73 1016.9
20260510165850 90 329 2.6 2.6 0.00 0.00 0.00 69 1017.1
20260510165347 89 282 2.6 4.3 0.00 0.00 0.00 73 1017.2
20260510164844 88 198 0.9 1.7 0.00 0.00 0.00 73 1017.2
20260510164341 89 315 2.6 4.3 0.00 0.00 0.00 71 1017.3
20260510163841 88 214 3.5 4.3 0.00 0.00 0.00 72 1017.2
20260510163338 89 286 2.6 4.3 0.00 0.00 0.00 70 1017.1
20260510162832 90 145 2.6 4.3 0.00 0.00 0.00 70 1017.3
20260510162329 89 211 2.6 2.6 0.00 0.00 0.00 69 1017.1
20260510161824 89 219 0.9 7.0 0.00 0.00 0.00 69 1017.1
20260510161315 89 220 1.7 4.3 0.00 0.00 0.00 70 1017.3
20260510160812 88 154 0.9 1.7 0.00 0.00 0.00 69 1017.4
20260510160308 89 253 2.6 4.3 0.00 0.00 0.00 69 1017.2
20260510155803 89 204 0.9 4.3 0.00 0.00 0.00 70 1017.1
20260510155300 88 278 1.7 2.6 0.00 0.00 0.00 71 1017.2
20260510154756 89 236 2.6 6.1 0.00 0.00 0.00 70 1017.4
20260510154252 89 191 0.9 4.3 0.00 0.00 0.00 71 1017.2
20260510153747 89 80 0.9 2.6 0.00 0.00 0.00 72 1017.0
20260510153242 87 231 0.9 2.6 0.00 0.00 0.00 73 1017.3
20260510152734 87 86 0.0 2.6 0.00 0.00 0.00 74 1017.1
20260510152230 88 204 0.9 4.3 0.00 0.00 0.00 72 1017.0
20260510151727 89 247 0.9 2.6 0.00 0.00 0.00 70 1017.1
20260510151226 90 213 0.9 1.7 0.00 0.00 0.00 69 1016.9
20260510150721 89 217 0.9 0.9 0.00 0.00 0.00 72 1017.2
20260510150216 87 338 1.7 5.2 0.00 0.00 0.00 74 1017.0
20260510145713 87 265 0.9 1.7 0.00 0.00 0.00 74 1016.8
20260510145209 87 190 1.7 1.7 0.00 0.00 0.00 74 1016.8
20260510144705 87 239 2.6 2.6 0.00 0.00 0.00 75 1016.7
20260510144203 87 197 0.9 2.6 0.00 0.00 0.00 76 1016.9
20260510143657 86 187 0.9 1.7 0.00 0.00 0.00 76 1016.9
20260510143154 86 180 0.9 1.7 0.00 0.00 0.00 76 1017.0
20260510142650 85 212 0.9 1.7 0.00 0.00 0.00 77 1017.3
20260510142147 85 161 0.9 0.9 0.00 0.00 0.00 78 1016.9
20260510141644 85 192 0.0 1.7 0.00 0.00 0.00 79 1017.0
20260510141142 85 211 0.9 4.3 0.00 0.00 0.00 78 1017.0
20260510140638 85 192 0.9 1.7 0.00 0.00 0.00 79 1016.8
20260510140137 84 173 2.6 2.6 0.00 0.00 0.00 80 1016.7
20260510135633 84 172 0.0 0.9 0.00 0.00 0.00 80 1016.6
20260510135129 85 140 0.9 1.7 0.00 0.00 0.00 79 1016.5
20260510134626 86 216 0.9 1.7 0.00 0.00 0.00 78 1016.8
20260510134124 84 216 1.7 1.7 0.00 0.00 0.00 78 1016.6
20260510133620 84 200 3.5 4.3 0.00 0.00 0.00 78 1016.8
20260510133115 84 127 0.9 2.6 0.00 0.00 0.00 79 1016.5
20260510132612 84 162 0.0 2.6 0.00 0.00 0.00 80 1016.5
20260510132109 83 165 0.9 4.3 0.00 0.00 0.00 81 1016.6
20260510131607 82 160 0.9 1.7 0.00 0.00 0.00 80 1016.7
20260510131104 82 79 0.9 5.2 0.00 0.00 0.00 81 1016.5
20260510130600 82 152 0.9 2.6 0.00 0.00 0.00 81 1016.5
20260510130058 81 192 0.9 5.2 0.00 0.00 0.00 82 1016.4
20260510125554 80 163 0.9 2.6 0.00 0.00 0.00 82 1016.3
20260510125050 80 145 0.9 5.2 0.00 0.00 0.00 83 1016.2
20260510124547 80 171 0.9 1.7 0.00 0.00 0.00 83 1016.4
20260510124044 80 122 0.9 1.7 0.00 0.00 0.00 83 1016.4
20260510123539 80 189 0.9 1.7 0.00 0.00 0.00 83 1016.5
20260510123036 78 162 0.0 0.9 0.00 0.00 0.00 85 1016.2
20260510122531 78 213 2.6 2.6 0.00 0.00 0.00 85 1016.5
20260510122028 78 181 0.9 1.7 0.00 0.00 0.00 87 1016.3
20260510121525 77 161 0.0 1.7 0.00 0.00 0.00 88 1016.2
20260510121022 76 154 0.9 1.7 0.00 0.00 0.00 90 1016.1
20260510120520 75 202 0.9 4.3 0.00 0.00 0.00 90 1015.9
20260510120015 75 165 0.9 1.7 0.00 0.00 0.00 91 1016.2
20260510115512 75 191 0.9 1.7 0.00 0.00 0.00 92 1015.9
20260510115009 74 130 0.0 0.9 0.00 0.00 0.00 92 1015.9
20260510114505 74 163 1.7 1.7 0.00 0.00 0.00 93 1015.8
20260510114001 74 160 0.0 1.7 0.00 0.00 0.00 93 1015.5
20260510113456 74 161 0.0 0.9 0.00 0.00 0.00 93 1015.5
20260510112954 74 165 0.0 0.9 0.00 0.00 0.00 93 1015.5
20260510112451 74 167 0.0 0.9 0.00 0.00 0.00 93 1015.4
20260510111947 73 165 0.0 0.9 0.00 0.00 0.00 93 1015.5
20260510111443 73 192 0.0 0.9 0.00 0.00 0.00 94 1015.2
20260510110940 73 133 0.0 0.0 0.00 0.00 0.00 94 1015.0
20260510110436 73 164 0.0 1.7 0.00 0.00 0.00 94 1015.0
20260510105932 73 163 0.0 0.0 0.00 0.00 0.00 94 1015.0
20260510105427 73 189 0.0 0.9 0.00 0.00 0.00 94 1014.7
20260510104922 73 169 0.0 0.0 0.00 0.00 0.00 94 1014.5
20260510104420 73 167 0.0 0.9 0.00 0.00 0.00 94 1014.4
20260510103916 73 159 0.0 0.0 0.00 0.00 0.00 94 1014.7
20260510103414 73 194 0.9 1.7 0.00 0.00 0.00 94 1014.8
20260510102908 73 175 0.0 0.0 0.00 0.00 0.00 94 1014.5
20260510102404 72 172 0.0 0.0 0.00 0.00 0.00 94 1014.5
20260510101901 73 167 0.0 0.0 0.00 0.00 0.00 94 1014.3
20260510101359 73 158 0.0 0.0 0.00 0.00 0.00 94 1014.4
20260510100856 73 157 0.0 0.0 0.00 0.00 0.00 94 1014.3
20260510100353 73 163 0.0 1.7 0.00 0.00 0.00 94 1014.2
20260510095850 73 187 0.0 0.9 0.00 0.00 0.00 94 1014.3
20260510095344 73 172 0.0 0.9 0.00 0.00 0.00 94 1014.1
20260510094839 73 142 0.0 1.7 0.00 0.00 0.00 94 1014.1
20260510094334 73 226 1.7 1.7 0.00 0.00 0.00 94 1014.0
20260510093831 73 172 0.0 0.9 0.00 0.00 0.00 94 1014.1
20260510093326 73 160 0.0 0.0 0.00 0.00 0.00 94 1013.9
20260510092823 73 157 0.0 0.9 0.00 0.00 0.00 93 1013.7
20260510092319 73 169 0.0 0.0 0.00 0.00 0.00 93 1014.1
20260510091815 73 167 0.0 1.7 0.00 0.00 0.00 93 1013.8
20260510091312 73 170 0.9 1.7 0.00 0.00 0.00 93 1014.0
20260510090809 73 172 0.0 0.9 0.00 0.00 0.00 93 1013.7
20260510090306 73 166 0.0 1.7 0.00 0.00 0.00 93 1013.8
20260510085801 73 168 0.0 0.9 0.00 0.00 0.00 93 1013.5
20260510085300 73 166 0.0 0.0 0.00 0.00 0.00 93 1013.7
20260510084756 73 153 0.0 0.9 0.00 0.00 0.00 93 1013.7
20260510084254 73 172 0.9 0.9 0.00 0.00 0.00 93 1013.7
20260510083750 73 162 0.0 0.9 0.00 0.00 0.00 93 1013.5
20260510083248 73 157 0.0 0.9 0.00 0.00 0.00 93 1013.1
20260510082743 73 166 0.0 0.0 0.00 0.00 0.00 93 1013.5
20260510082240 73 174 0.0 0.9 0.00 0.00 0.00 93 1013.4
20260510081739 73 170 0.9 1.7 0.00 0.00 0.00 93 1013.5
20260510081235 73 177 0.0 0.9 0.00 0.00 0.00 93 1013.2
20260510080730 73 161 0.0 0.0 0.00 0.00 0.00 93 1013.1
20260510080226 73 158 0.0 0.0 0.00 0.00 0.00 93 1013.2
20260510075723 73 167 0.0 0.0 0.00 0.00 0.00 93 1013.1
20260510075221 73 155 0.0 0.0 0.00 0.00 0.00 93 1013.2
20260510074718 73 131 0.0 0.9 0.00 0.00 0.00 93 1013.3
20260510074214 73 168 0.0 1.7 0.00 0.00 0.00 93 1013.2
20260510073711 73 184 0.9 1.7 0.00 0.00 0.00 94 1013.2
20260510073206 73 158 0.0 1.7 0.00 0.00 0.00 94 1013.7
20260510072702 73 156 0.0 0.9 0.00 0.00 0.00 93 1013.6
20260510072159 73 164 0.9 0.9 0.00 0.00 0.00 93 1013.4
20260510071656 73 145 0.0 0.9 0.00 0.00 0.00 93 1013.4
20260510071153 73 190 0.0 1.7 0.00 0.00 0.00 93 1013.5
20260510070650 73 150 0.0 0.0 0.00 0.00 0.00 93 1013.6
20260510070148 73 188 1.7 2.6 0.00 0.00 0.00 93 1013.7
20260510065643 73 158 0.0 0.9 0.00 0.00 0.00 93 1013.7
20260510065139 73 228 0.9 0.9 0.00 0.00 0.00 93 1013.6
20260510064636 73 182 0.0 0.9 0.00 0.00 0.00 93 1013.9
20260510064132 73 179 0.0 1.7 0.00 0.00 0.00 93 1014.0
20260510063630 73 171 0.0 0.9 0.00 0.00 0.00 93 1014.0
20260510063126 73 174 0.9 2.6 0.00 0.00 0.00 93 1014.0
20260510062622 73 163 0.0 0.0 0.00 0.00 0.00 92 1013.9
20260510062118 73 164 0.0 0.0 0.00 0.00 0.00 92 1013.9
20260510061614 73 164 0.0 0.9 0.00 0.00 0.00 92 1014.0
20260510061112 73 193 0.0 0.9 0.00 0.00 0.00 92 1014.1
20260510060608 72 158 0.0 0.0 0.00 0.00 0.00 92 1014.3
20260510060105 72 153 0.0 0.0 0.00 0.00 0.00 92 1014.5
20260510055601 72 162 0.0 0.0 0.00 0.00 0.00 92 1014.6
20260510055059 72 167 0.9 0.9 0.00 0.00 0.00 92 1014.5
20260510054555 72 161 0.0 0.0 0.00 0.00 0.00 92 1014.7
20260510054049 71 168 0.0 0.0 0.00 0.00 0.00 92 1014.7
20260510053543 72 159 0.0 0.9 0.00 0.00 0.00 92 1014.9
20260510053041 71 162 0.0 0.0 0.00 0.00 0.00 92 1014.8
20260510052537 71 157 0.0 0.0 0.00 0.00 0.00 92 1014.7
20260510052033 71 161 0.0 0.0 0.00 0.00 0.00 92 1014.9
20260510051529 72 161 0.0 0.0 0.00 0.00 0.00 92 1015.1
20260510051025 72 159 0.0 0.0 0.00 0.00 0.00 91 1015.1
20260510050523 72 163 0.0 0.0 0.00 0.00 0.00 91 1015.1
20260510050020 72 169 0.0 0.0 0.00 0.00 0.00 91 1015.1
20260510045517 72 175 0.0 0.9 0.00 0.00 0.00 91 1015.1
20260510045013 72 166 0.0 0.0 0.00 0.00 0.00 91 1015.4
20260510044510 72 169 0.0 0.0 0.00 0.00 0.00 90 1015.1
20260510044008 72 161 0.0 0.0 0.00 0.00 0.00 90 1015.3
20260510043508 72 172 0.0 0.0 0.00 0.00 0.00 90 1015.2
20260510043004 72 168 0.0 0.0 0.00 0.00 0.00 90 1015.3
20260510042457 73 161 0.0 0.0 0.00 0.00 0.00 90 1015.3
20260510041947 73 168 0.0 0.0 0.00 0.00 0.00 90 1015.5
20260510041444 73 158 0.0 0.0 0.00 0.00 0.00 90 1015.5
20260510040943 73 167 0.0 0.0 0.00 0.00 0.00 89 1015.5
20260510040439 73 160 0.0 0.0 0.00 0.00 0.00 89 1015.6
20260510035934 73 158 0.0 0.0 0.00 0.00 0.00 88 1015.5
20260510035430 74 156 0.0 0.0 0.00 0.00 0.00 88 1015.5
20260510034925 74 153 0.0 0.0 0.00 0.00 0.00 88 1015.6
20260510034424 74 157 0.0 0.0 0.00 0.00 0.00 88 1015.4
20260510033920 74 158 0.0 0.0 0.00 0.00 0.00 88 1015.5
20260510033416 74 157 0.0 0.0 0.00 0.00 0.00 88 1015.7
20260510032913 74 153 0.0 0.0 0.00 0.00 0.00 88 1015.4
20260510032410 74 159 0.0 0.0 0.00 0.00 0.00 88 1015.4
20260510031905 74 158 0.0 0.0 0.00 0.00 0.00 88 1015.5
20260510031400 74 161 0.0 0.0 0.00 0.00 0.00 88 1015.7
20260510030855 74 167 0.0 0.0 0.00 0.00 0.00 88 1015.3
20260510030352 74 153 0.0 0.0 0.00 0.00 0.00 88 1015.5
20260510025850 74 148 0.0 0.0 0.00 0.00 0.00 88 1015.1
20260510025347 74 143 0.0 0.0 0.00 0.00 0.00 88 1015.4
20260510024844 74 148 0.0 0.0 0.00 0.00 0.00 88 1015.3
20260510024340 74 153 0.0 0.0 0.00 0.00 0.00 87 1015.3
20260510023836 74 157 0.0 0.0 0.00 0.00 0.00 87 1015.1
20260510023333 74 152 0.0 0.0 0.00 0.00 0.00 87 1015.1
20260510022831 74 161 0.0 0.0 0.00 0.00 0.00 87 1015.0
20260510022329 74 167 0.0 0.0 0.00 0.00 0.00 87 1015.1
20260510021828 74 166 0.0 0.0 0.00 0.00 0.00 86 1014.9
20260510021327 74 153 0.0 0.0 0.00 0.00 0.00 86 1014.9
20260510020823 75 154 0.0 0.0 0.00 0.00 0.00 86 1015.0
20260510020317 75 163 0.0 0.0 0.00 0.00 0.00 86 1014.9
20260510015814 75 143 0.0 0.0 0.00 0.00 0.00 86 1014.6
20260510015310 75 153 0.0 0.0 0.00 0.00 0.00 86 1014.4
20260510014805 75 148 0.0 0.0 0.00 0.00 0.00 85 1014.3
20260510014302 75 135 0.0 0.0 0.00 0.00 0.00 85 1014.3
20260510013758 75 151 0.0 0.0 0.00 0.00 0.00 85 1014.3
20260510013254 75 152 0.0 0.0 0.00 0.00 0.00 85 1014.3
20260510012749 76 158 0.0 0.0 0.00 0.00 0.00 85 1014.3
20260510012244 76 152 0.0 0.0 0.00 0.00 0.00 85 1014.3
20260510011744 76 158 0.0 0.0 0.00 0.00 0.00 85 1014.2
20260510011239 76 151 0.0 0.0 0.00 0.00 0.00 85 1014.2
20260510010737 76 159 0.0 0.0 0.00 0.00 0.00 85 1014.3
20260510010233 76 159 0.0 0.0 0.00 0.00 0.00 84 1014.2
20260510005730 77 176 0.0 0.0 0.00 0.00 0.00 84 1014.2
20260510005227 77 157 0.0 0.0 0.00 0.00 0.00 84 1014.1
20260510004724 77 158 0.0 0.0 0.00 0.00 0.00 83 1014.1
20260510004222 77 168 0.0 0.0 0.00 0.00 0.00 83 1013.9
20260510003720 77 149 0.0 0.0 0.00 0.00 0.00 83 1013.9
20260510003215 78 161 0.0 0.9 0.00 0.00 0.00 83 1013.8
20260510002714 78 134 0.0 0.9 0.00 0.00 0.00 82 1013.8
20260510002212 78 110 0.0 0.9 0.00 0.00 0.00 82 1013.9
20260510001709 79 165 0.0 0.0 0.00 0.00 0.00 83 1013.8
20260510001207 79 154 0.0 0.0 0.00 0.00 0.00 82 1013.6
20260510000702 79 230 0.9 1.7 0.00 0.00 0.00 82 1013.7
20260510000200 79 157 0.0 0.0 0.00 0.00 0.00 82 1014.0
20260509235656 80 185 0.0 0.9 0.00 0.00 0.00 82 1013.7
20260509235153 80 157 0.0 0.0 0.00 0.00 0.00 82 1013.5
20260509234649 80 187 0.0 0.9 0.00 0.00 0.00 82 1013.5
20260509234146 80 165 0.0 0.0 0.00 0.00 0.00 82 1013.2
20260509233644 80 176 0.0 0.0 0.00 0.00 0.00 82 1013.1
20260509233141 80 181 0.0 0.9 0.00 0.00 0.00 82 1013.3
20260509232637 80 299 0.9 0.9 0.00 0.00 0.00 82 1013.1
20260509232134 80 218 0.9 0.9 0.00 0.00 0.00 81 1013.3
20260509231631 80 159 0.0 0.9 0.00 0.00 0.00 81 1013.4
20260509231129 80 209 0.9 0.9 0.00 0.00 0.00 81 1013.2
20260509230625 80 136 0.0 0.9 0.00 0.00 0.00 81 1013.3
20260509230122 80 140 0.9 0.9 0.00 0.00 0.00 81 1013.4
20260509225618 80 345 0.9 1.7 0.00 0.00 0.00 81 1013.4
20260509225114 80 145 0.0 0.9 0.00 0.00 0.00 82 1013.2
20260509224609 81 346 0.9 2.6 0.00 0.00 0.00 81 1013.4
20260509224107 81 117 0.9 4.3 0.00 0.00 0.00 81 1013.2
20260509223603 81 301 2.6 4.3 0.00 0.00 0.00 80 1013.6
20260509223101 81 240 2.6 2.6 0.00 0.00 0.00 80 1013.2
20260509222557 81 340 1.7 1.7 0.00 0.00 0.00 79 1013.4
20260509222053 82 270 1.7 2.6 0.00 0.00 0.00 79 1013.2
20260509221549 82 166 0.9 4.3 0.00 0.00 0.00 77 1013.5
20260509221045 82 174 0.0 2.6 0.00 0.00 0.00 77 1013.2
20260509220541 82 249 0.9 2.6 0.00 0.00 0.00 76 1013.0
20260509220037 82 248 1.7 2.6 0.00 0.00 0.00 76 1013.2
20260509215532 82 227 1.7 2.6 0.00 0.00 0.00 75 1013.1
20260509215030 83 197 0.9 2.6 0.00 0.00 0.00 75 1013.1
20260509214527 83 272 1.7 2.6 0.00 0.00 0.00 74 1012.9
20260509214024 83 332 0.9 1.7 0.00 0.00 0.00 75 1013.0
20260509213520 84 247 2.6 4.3 0.00 0.00 0.00 74 1012.8
20260509213017 84 330 3.5 5.2 0.00 0.00 0.00 72 1012.8
20260509212514 84 217 3.5 5.2 0.00 0.00 0.00 72 1012.7
20260509212011 85 252 2.6 2.6 0.00 0.00 0.00 71 1012.4
20260509211506 86 264 1.7 5.2 0.00 0.00 0.00 69 1012.5
20260509211003 86 287 2.6 5.2 0.00 0.00 0.00 69 1012.5
20260509210500 85 215 0.9 2.6 0.00 0.00 0.00 70 1012.6
20260509205956 85 249 2.6 7.0 0.00 0.00 0.00 70 1012.3
20260509205451 86 302 2.6 2.6 0.00 0.00 0.00 69 1012.3
20260509204946 87 231 1.7 5.2 0.00 0.00 0.00 65 1012.4
20260509204443 87 219 1.7 4.3 0.00 0.00 0.00 66 1012.2
20260509203940 86 227 1.7 4.3 0.00 0.00 0.00 66 1012.4
20260509203435 86 232 1.7 5.2 0.00 0.00 0.00 66 1012.4
20260509202934 87 276 2.6 5.2 0.00 0.00 0.00 64 1012.5
20260509202429 87 231 1.7 2.6 0.00 0.00 0.00 63 1012.5
20260509201925 87 307 2.6 4.3 0.00 0.00 0.00 63 1012.2
20260509201420 87 25 2.6 5.2 0.00 0.00 0.00 64 1012.5
20260509200917 88 230 1.7 2.6 0.00 0.00 0.00 63 1012.3
20260509200417 87 322 2.6 2.6 0.00 0.00 0.00 64 1012.3
20260509195913 87 342 1.7 4.3 0.00 0.00 0.00 66 1012.7
20260509195409 88 248 2.6 2.6 0.00 0.00 0.00 64 1012.6
20260509194903 87 215 0.9 2.6 0.00 0.00 0.00 64 1012.7
20260509194359 87 213 3.5 4.3 0.00 0.00 0.00 66 1012.7
20260509193855 87 166 1.7 5.2 0.00 0.00 0.00 67 1012.6
20260509193350 87 261 1.7 4.3 0.00 0.00 0.00 64 1012.5
20260509192846 86 246 2.6 4.3 0.00 0.00 0.00 66 1012.7
20260509192342 86 22 1.7 4.3 0.00 0.00 0.00 66 1012.9
20260509191838 87 32 3.5 5.2 0.00 0.00 0.00 64 1012.8
20260509191334 88 316 2.6 7.0 0.00 0.00 0.00 62 1012.9
20260509190830 88 257 0.9 5.2 0.00 0.00 0.00 63 1012.9
20260509190327 89 315 1.7 6.1 0.00 0.00 0.00 63 1012.9
20260509185824 88 231 0.9 6.1 0.00 0.00 0.00 63 1013.0
20260509185321 88 203 2.6 4.3 0.00 0.00 0.00 61 1013.2
20260509184818 88 210 0.9 4.3 0.00 0.00 0.00 63 1013.3
20260509184310 88 215 0.9 5.2 0.00 0.00 0.00 65 1013.0
20260509183806 88 159 2.6 4.3 0.00 0.00 0.00 65 1013.2
20260509183301 88 15 2.6 5.2 0.00 0.00 0.00 66 1013.0
20260509182757 89 267 3.5 5.2 0.00 0.00 0.00 66 1013.4
20260509182255 89 195 2.6 2.6 0.00 0.00 0.00 64 1013.3
20260509181751 89 165 0.0 2.6 0.00 0.00 0.00 63 1013.3
20260509181249 89 240 0.9 2.6 0.00 0.00 0.00 62 1013.6
20260509180746 89 237 2.6 6.1 0.00 0.00 0.00 63 1013.5
20260509180242 91 253 2.6 5.2 0.00 0.00 0.00 63 1013.4
20260509175739 91 288 1.7 2.6 0.00 0.00 0.00 61 1013.5
20260509175235 90 253 0.9 4.3 0.00 0.00 0.00 64 1013.8
20260509174732 89 193 1.7 5.2 0.00 0.00 0.00 66 1013.6
20260509174227 91 193 2.6 4.3 0.00 0.00 0.00 63 1013.8
20260509173723 90 202 2.6 2.6 0.00 0.00 0.00 64 1014.0